Location: Caltech
(34.1382°N, 118.1253°W)
Time: 13:41:19
(UTC-07:00)

Lacrosse 5 - Visible Passes

Search period start: 23 May 2017 00:00
Search period end: 02 June 2017 00:00
Orbit: 717 x 723 km, 57.0° (Epoch: 23 May)

Date Brightness Start Highest point End Pass type
(mag) Time Alt. Az. Time Alt. Az. Time Alt. Az.
23 May 3.4 01:36:31 32° NNE 01:36:31 32° NNE 01:39:26 10° NNE visible
23 May 4.4 03:16:47 10° NW 03:18:26 11° NNW 03:20:06 10° N visible
24 May 4.0 00:44:57 20° NE 00:44:57 20° NE 00:46:29 10° NE visible
24 May 4.0 02:24:07 18° NW 02:24:53 18° NW 02:28:22 10° N visible
25 May 3.6 01:32:28 28° NNW 01:32:28 28° NNW 01:35:58 10° NNE visible
26 May 3.6 00:40:43 29° NNE 00:40:43 29° NNE 00:43:16 10° NNE visible
26 May 4.5 02:20:35 10° NW 02:22:16 11° NNW 02:23:57 10° N visible
26 May 4.0 23:48:52 19° NE 23:48:52 19° NE 23:50:19 10° NE visible
27 May 4.1 01:28:01 18° NW 01:28:42 18° NW 01:32:12 10° N visible
27 May 4.3 22:56:51 11° ENE 22:56:51 11° ENE 22:57:00 10° NE visible
28 May 3.6 00:35:58 29° NNW 00:35:58 29° NNW 00:39:48 10° NNE visible
28 May 3.1 23:43:43 38° N 23:43:43 38° N 23:47:06 10° NNE visible
29 May 4.7 01:24:23 10° NW 01:26:06 12° NNW 01:27:49 10° N visible
29 May 2.8 22:51:05 37° NE 22:51:05 37° NE 22:54:09 10° NE visible
30 May 4.3 00:30:10 14° WNW 00:32:32 18° NW 00:36:03 10° N visible
30 May 2.8 21:57:41 30° E 21:57:41 30° E 22:00:50 10° NE visible
30 May 3.5 23:36:40 20° W 23:39:09 31° NW 23:43:38 10° NNE visible
31 May 5.1 04:53:16 10° N 04:54:56 11° NNE 04:56:36 10° NE visible
31 May 3.2 21:00:22 11° SSE 21:03:23 18° ESE 21:06:50 10° ENE visible
31 May 2.4 22:40:58 10° SW 22:45:57 56° NW 22:50:57 10° NNE visible
01 Jun 4.9 00:28:11 10° NW 00:29:56 12° NNW 00:31:40 10° N visible
01 Jun 1.7 21:47:50 10° SSW 21:52:54 76° SE 21:57:59 10° NE visible
01 Jun 4.5 23:32:50 10° W 23:36:22 18° NW 23:39:54 10° N visible
